Location: Dortmund
(51.5019°N, 7.6520°E)
Time: 18:06:55
(UTC+02:00)

ISS - Pass Details

Date: 30 March 2017
Orbit: 401 x 409 km, 51.6° (Epoch: 29 April)

Event Time Altitude Azimuth Distance (km) Brightness Sun altitude
Rises 22:13:22 0° 251° (WSW) 2,319 0.5 -20.0°
Reaches altitude 10° 22:15:26 10° 250° (WSW) 1,463 -0.6 -20.3°
Enters shadow 22:17:57 48° 234° (SW) 538 -3.2 -20.6°
